Dewpoint
70 70 70 69 69 70 70 71 71 72 72 72 71 71 71 70 71 70 70 68 69 69
71 70 68 69 69 69 70 71 72 72 72 72 72 71 72 71 71 71 69 68 70 70
71 70 70 71 71 71 71 72 72 72 72 72 72 72 72 71 71 70 70 70 69 69
72 71 71 71 71 71 71 71 71 71 71 71 72 72 71 71 71 69 70 70 70 70
71 71 71 72 72 71 70 70 69 69 69 68 69 71 72 71 71 70 69 69 69 70
69 71 71 71 72 72 69 69 69 66 63 62 66 70 72 72 71 71 71 69 69 70
69 69 69 70 71 72 72 70 70 70 69 68 70 71 72 72 71 70 71 71 71 71
68 69 67 68 69 70 72 72 72 71 72 72 73 72 72 72 72 70 70 71 71 72
67 67 67 68 68 68 69 71 72 72 71 71 72 69 67 71 72 72 71 70 71 71
65 64 65 65 65 66 67 68 68 70 71 71 72 67 65 66 69 71 71 72 71 70
64 64 64 64 64 64 66 66 67 68 69 70 72 66 64 65 68 67 67 69 71 72
61 61 63 63 63 64 64 64 65 67 67 68 69 63 62 64 70 69 69 69 69 70
56 57 58 59 60 63 63 64 65 65 66 65 68 60 59 62 69 69 70 70 71 65
53 53 54 55 57 59 58 58 60 63 65 67 65 63 57 58 66 67 68 70 71 70
Lifted_Index
-3 -3 -3 -3 -3 -3 -3 -3 -3 -4 -4 -4 -4 -3 -4 -4 -3 -3 -3 -3 -3 -3
-3 -3 -3 -3 -3 -3 -3 -4 -4 -4 -4 -4 -4 -4 -4 -4 -3 -3 -3 -3 -3 -3
-3 -3 -3 -3 -4 -4 -4 -4 -4 -4 -4 -4 -4 -4 -4 -4 -3 -3 -3 -3 -3 -3
-3 -3 -3 -4 -4 -4 -4 -4 -4 -4 -4 -4 -5 -4 -4 -4 -4 -3 -3 -3 -3 -3
-4 -4 -4 -4 -5 -4 -4 -4 -4 -4 -4 -4 -4 -4 -4 -4 -4 -4 -3 -3 -3 -3
-4 -4 -4 -4 -5 -5 -4 -4 -4 -4 -3 -3 -3 -4 -4 -5 -4 -4 -4 -3 -3 -3
-3 -3 -3 -4 -4 -4 -5 -4 -4 -4 -4 -4 -4 -4 -4 -5 -4 -4 -4 -4 -3 -4
-1 -2 -2 -3 -3 -4 -5 -5 -5 -5 -5 -4 -4 -4 -5 -5 -4 -4 -4 -4 -4 -4
0 -0 -1 -1 -2 -3 -4 -5 -5 -5 -5 -5 -5 -5 -5 -5 -4 -4 -4 -4 -4 -4
1 1 0 -0 -1 -2 -3 -4 -4 -5 -5 -5 -5 -5 -5 -5 -4 -4 -4 -4 -4 -4
-0 0 0 -0 -1 -1 -2 -3 -4 -4 -4 -4 -5 -5 -5 -5 -4 -4 -4 -4 -4 -4
1 1 0 -0 -0 -1 -1 -2 -2 -3 -3 -3 -4 -4 -4 -4 -4 -4 -4 -4 -4 -4
5 4 3 2 2 2 2 1 0 -1 -2 -2 -3 -3 -4 -4 -4 -4 -4 -4 -4 -4
8 8 7 5 5 4 4 4 3 1 -1 -2 -2 -3 -3 -3 -4 -4 -4 -4 -4 -4